FW8124 Weather Reports


time (UTC)temp
C
wind
direction
speed
KPH
gust
KPH
rain 1hr
cm
rain 24hr
cm
rain mn
cm
humidity
%
barometer
mb
20260507013053 17 138 3.2 14.5 0.00 0.00 0.00 79 1011.0
20260507011552 17 186 9.7 20.9 0.00 0.00 0.00 79 1010.9
20260507010104 17 196 8.0 16.1 0.00 0.00 0.00 79 1011.0
20260507004601 17 195 4.8 14.5 0.00 0.00 0.00 79 1010.8
20260507003055 17 215 8.0 16.1 0.00 0.00 0.00 79 1011.0
20260507001555 17 199 6.4 14.5 0.00 0.00 0.00 79 1010.8
20260507000051 17 180 8.0 16.1 0.00 0.00 0.00 79 1011.0
20260506234550 17 179 4.8 12.9 0.00 0.00 0.00 79 1011.1
20260506233058 17 187 4.8 12.9 0.00 0.00 0.00 78 1011.3
20260506231558 18 182 3.2 12.9 0.00 0.00 0.00 78 1011.4
20260506230053 18 194 4.8 11.3 0.00 0.00 0.00 78 1011.4
20260506224553 18 186 4.8 12.9 0.00 0.00 0.00 77 1011.4
20260506223052 18 188 4.8 12.9 0.00 0.00 0.00 77 1011.4
20260506221552 18 209 4.8 12.9 0.00 0.00 0.00 77 1011.3
20260506220056 18 256 6.4 11.3 0.00 0.00 0.00 78 1011.4
20260506214604 18 222 4.8 11.3 0.00 0.00 0.00 78 1011.5
20260506213053 18 216 4.8 16.1 0.00 0.00 0.00 78 1011.8
20260506211603 18 232 4.8 16.1 0.00 0.00 0.00 78 1011.9
20260506210056 18 246 8.0 16.1 0.00 0.00 0.00 78 1011.9
20260506204555 18 230 6.4 16.1 0.00 0.00 0.00 79 1011.7
20260506203052 18 229 4.8 17.7 0.00 0.00 0.00 78 1011.6
20260506201556 18 250 8.0 16.1 0.00 0.00 0.00 78 1011.5
20260506200103 18 258 8.0 16.1 0.00 0.00 0.00 78 1011.1
20260506194605 18 205 6.4 14.5 0.00 0.00 0.00 78 1011.0
20260506193056 18 244 8.0 19.3 0.00 0.00 0.00 77 1010.8
20260506191605 18 225 6.4 16.1 0.00 0.00 0.00 77 1010.8
20260506190056 18 242 6.4 17.7 0.00 0.00 0.00 77 1010.7
20260506184554 18 221 8.0 20.9 0.00 0.00 0.00 78 1010.5
20260506183053 18 233 8.0 16.1 0.00 0.00 0.00 77 1010.4
20260506181601 18 243 8.0 17.7 0.00 0.00 0.00 77 1010.2
20260506180115 18 219 8.0 16.1 0.00 0.00 0.00 77 1010.3
20260506174554 19 234 11.3 24.1 0.00 0.00 0.00 77 1010.2
20260506173119 19 249 9.7 20.9 0.00 0.00 0.00 77 1010.3
20260506171553 19 227 8.0 24.1 0.00 0.00 0.00 76 1010.3
20260506170053 19 210 11.3 22.5 0.00 0.00 0.00 76 1010.1
20260506164551 19 257 9.7 24.1 0.00 0.00 0.00 76 1010.2
20260506163100 19 234 11.3 25.7 0.00 0.00 0.00 74 1010.2
20260506161555 19 228 14.5 24.1 0.00 0.00 0.00 74 1010.2
20260506160053 19 207 11.3 29.0 0.00 0.00 0.00 75 1010.3
20260506154557 19 222 12.9 25.7 0.00 0.00 0.00 73 1010.2
20260506153057 20 231 16.1 30.6 0.00 0.00 0.00 72 1010.2
20260506151554 20 190 14.5 29.0 0.00 0.00 0.00 72 1010.3
20260506150100 20 192 16.1 30.6 0.00 0.00 0.00 71 1010.3
20260506144605 19 248 17.7 32.2 0.00 0.00 0.00 73 1010.5
20260506143053 20 244 11.3 22.5 0.00 0.00 0.00 72 1010.4
20260506141555 20 275 12.9 24.1 0.00 0.00 0.00 73 1010.4
20260506140052 20 235 12.9 22.5 0.00 0.00 0.00 72 1010.7
20260506134554 20 221 11.3 22.5 0.00 0.00 0.00 73 1010.6
20260506133101 20 229 12.9 24.1 0.00 0.00 0.00 73 1010.7
20260506131550 20 257 11.3 20.9 0.00 0.00 0.00 72 1010.7
20260506130053 20 242 12.9 20.9 0.00 0.00 0.00 73 1010.8
20260506124552 20 231 14.5 22.5 0.00 0.00 0.00 73 1011.0
20260506123052 20 217 12.9 22.5 0.00 0.00 0.00 72 1011.0
20260506121549 20 222 12.9 22.5 0.00 0.00 0.00 72 1011.2
20260506120055 20 236 14.5 20.9 0.00 0.00 0.00 73 1011.3
20260506114552 20 233 11.3 22.5 0.00 0.00 0.00 72 1011.3
20260506113052 21 248 12.9 30.6 0.00 0.00 0.00 72 1011.4
20260506111552 21 200 16.1 33.8 0.00 0.00 0.00 70 1011.5
20260506110052 20 217 16.1 27.4 0.00 0.00 0.00 71 1011.5
20260506104555 20 209 12.9 29.0 0.00 0.00 0.00 70 1011.5
20260506103049 20 194 14.5 25.7 0.00 0.00 0.00 71 1011.6
20260506101548 20 240 11.3 29.0 0.00 0.00 0.00 70 1011.6
20260506100053 21 234 11.3 30.6 0.00 0.00 0.00 69 1011.7
20260506094605 20 213 12.9 25.7 0.00 0.00 0.00 69 1011.4
20260506093049 21 248 14.5 27.4 0.00 0.00 0.00 68 1011.3
20260506091550 21 166 12.9 29.0 0.00 0.00 0.00 68 1011.1
20260506090052 20 198 12.9 32.2 0.00 0.00 0.00 67 1010.9
20260506084559 20 180 11.3 24.1 0.00 0.00 0.00 68 1010.9
20260506083058 20 191 12.9 32.2 0.00 0.00 0.00 69 1010.8
20260506081552 20 209 14.5 27.4 0.00 0.00 0.00 69 1011.0
20260506080107 20 187 11.3 22.5 0.00 0.00 0.00 71 1010.8
20260506073106 19 213 8.0 24.1 0.00 0.00 0.00 74 1010.9
20260506071553 18 218 11.3 27.4 0.00 0.00 0.00 75 1010.8
20260506061604 16 113 3.2 9.7 0.00 0.00 0.00 68 1010.8
20260506044554 16 131 3.2 11.3 0.00 0.00 0.00 67 1009.8
20260506043053 16 98 4.8 11.3 0.00 0.00 0.00 69 1009.6
20260506041558 16 124 0.0 6.4 0.00 0.00 0.00 73 1009.8
20260506040056 16 117 1.6 9.7 0.00 0.00 0.00 75 1009.7
20260506034558 16 0 0.0 0.0 0.00 0.00 0.00 76 1009.9
20260506033122 16 0 0.0 0.0 0.00 0.00 0.00 76 1009.8
20260506031553 16 0 0.0 0.0 0.00 0.00 0.00 77 1010.0
20260506030100 17 0 0.0 0.0 0.00 0.00 0.00 77 1009.8
20260506024614 17 0 0.0 4.8 0.00 0.00 0.00 77 1009.9
20260506023103 17 113 1.6 4.8 0.00 0.00 0.00 78 1009.9
20260506021558 17 114 0.0 4.8 0.00 0.00 0.00 77 1009.9
20260506020055 17 0 0.0 0.0 0.00 0.00 0.00 77 1009.9
20260506014553 17 0 0.0 0.0 0.00 0.00 0.00 77 1010.0